Location: Austin
(30.3000°N, 97.7500°W)
Time: 04:53:13
(UTC-06:00)

Cosmos 1484 Rocket - Pass Details

Date: 05 February 2026
Orbit: 439 x 466 km, 97.6° (Epoch: 15 February)

Event Time Altitude Azimuth Distance (km) Brightness Sun altitude
Rises 06:07:00 0° 17° (NNE) 2,496 6.3 -15.9°
Reaches altitude 10° 06:09:05 10° 22° (NNE) 1,620 5.4 -15.5°
Maximum altitude 06:12:30 54° 100° (E) 573 3.3 -14.8°
Drops below altitude 10° 06:15:54 10° 179° (S) 1,615 5.4 -14.1°
Sets 06:17:58 0° 184° (S) 2,487 6.3 -13.6°
